Location: Gokavaram
(16.9752°N, 81.0696°E)
Time: 13:13:52
(UTC+00:00)

H-10 deb - Pass Details

Date: 15 May 2026
Orbit: 390 x 32007 km, 7.5° (Epoch: 11 June)

Event Time Altitude Azimuth Distance (km) Brightness Sun altitude
Rises 13:20:44 0° 266° (W) 9,743 9.5 -5.5°
Reaches altitude 10° 13:31:43 10° 259° (WSW) 5,325 7.8 -7.9°
Maximum altitude 13:40:54 29° 201° (SSW) 1,525 4.0 -9.9°
Enters shadow 13:43:49 12° 139° (SE) 1,695 3.8 -10.6°
